Regional Weather Roundup
Issued by NWS Goodland, KS

Home | Current Version | Previous Version | Text Only | Print | Product List | Glossary Off
Versions: 1 2 3 4 5 6 7 8 9 10 11 12 13 14 15 16 17 18 19 20 21 22 23 24 25 26 27 28 29 30 31 32 33 34 35 36 37 38 39 40 41 42 43 44 45 46 47 48 49 50

000
ASUS43 KGLD 032159
RWRGLD

GOODLAND FORECAST AREA HOURLY WEATHER ROUNDUP
NATIONAL WEATHER SERVICE GOODLAND KS
400 PM MDT FRI JUL 03 2015

...OFFICIAL OBSERVATIONS...

CITY           SKY/WX    TMP DP  RH WIND       PRES   REMARKS
GOODLAND KS    MOSUNNY   83  55  38 SE5       30.03F
HILL CITY KS   SUNNY     86  58  38 NE8       29.99F
IMPERIAL NEB   SUNNY     87  53  31 VRB5      30.02F
MCCOOK NEB     PTSUNNY   82  61  48 E8        30.00F
AKRON CO       SUNNY     82  56  40 CALM      30.08F
BURLINGTON CO  SUNNY     85  53  33 VRB3      30.06F
LIMON CO       SUNNY     80  56  43 VRB5      30.12F
$$

...UNOFFICIAL OBSERVATIONS...

CITY           SKY/WX    TMP DP  RH WIND       PRES   REMARKS
COLBY KS       MOSUNNY   88  57  35 N7        30.02F
GOVE KS          N/A     81  32  17 MISG        N/A
NORTON KS      SUNNY     81  55  41 N9        30.00S
SHARON SPRINGS   N/A     87  59  38 CALM        N/A
YUMA CO          N/A     83  59  44 SE7         N/A
$$


USA.gov is the U.S. government's official web portal to all federal, state and local government web resources and services.